Volver al catálogo

STARLINK-3682

ActivoComunicacionesVLEO
NORAD 52140·PAYLOAD·🇺🇸 United States

Lanzado Mar 19, 2022 desde Cape Canaveral Space Force Station

Loading…

Próximos Pases (próximas 24 horas)

TLE

ActualizadoSource: CelesTrak SupGP

Época: Sep 14, 2026, 21:20 UTC

1 52140C 22029BE  26257.88937500 -.00000687  00000+0 -20312-4 0  2570
2 52140  53.1581 293.7926 0000926  93.2271  91.5548 15.34382623    16

Sigue STARLINK-3682 en tiempo real con AllMySat

Download on the App Store